When you browse on this site, cookies collect data to enhance your experience and personalize the content and advertising you see.
Visit our Privacy Policy to learn more. By continuing to use the site, you agree to this use of cookies and data.
  • In United Kingdom
  • List of Countries
  • For 7 days
  • Water Temperature
  • Satellite Maps
  • Weather Map
  • Weather Widgets
  • user-avatar
    Login

    Hourly Weather Cinarli

    Today, 26 May, Sunday

    Time Temperature Precipitation Wind Pressure Humidity
    00:00 +17°C° 0.1 mm 2 mps 685 mmHg 53%
    01:00 +16°C° 0 mm 2 mps 685 mmHg 51%
    02:00 +16°C° 0 mm 2 mps 685 mmHg 49%
    03:00 +16°C° 0 mm 2 mps 685 mmHg 46%
    04:00 +17°C° 0 mm 2 mps 685 mmHg 44%
    05:00 +18°C° 0 mm 2 mps 686 mmHg 41%
    06:00 +19°C° 0 mm 2 mps 686 mmHg 38%
    07:00 +21°C° 0 mm 3 mps 687 mmHg 33%
    08:00 +24°C° 0 mm 3 mps 687 mmHg 28%
    09:00 +26°C° 0 mm 3 mps 687 mmHg 23%
    10:00 +27°C° 0 mm 3 mps 687 mmHg 24%
    11:00 +27°C° 0 mm 3 mps 687 mmHg 25%
    12:00 +28°C° 0 mm 4 mps 687 mmHg 26%
    13:00 +28°C° 0 mm 4 mps 687 mmHg 25%
    14:00 +28°C° 0 mm 4 mps 687 mmHg 24%
    15:00 +28°C° 0 mm 3 mps 686 mmHg 24%
    16:00 +26°C° 0 mm 3 mps 686 mmHg 28%
    17:00 +25°C° 0 mm 2 mps 686 mmHg 31%
    18:00 +23°C° 0 mm 2 mps 686 mmHg 35%
    19:00 +20°C° 0 mm 2 mps 686 mmHg 33%
    20:00 +18°C° 0 mm 2 mps 687 mmHg 30%
    21:00 +16°C° 0 mm 2 mps 687 mmHg 27%
    22:00 +16°C° 0 mm 2 mps 687 mmHg 28%
    23:00 +15°C° 0 mm 2 mps 687 mmHg 28%

    Tomorrow, 27 May, Monday

    Time Temperature Precipitation Wind Pressure Humidity
    00:00 +15°C° 0 mm 2 mps 687 mmHg 28%
    01:00 +14°C° 0 mm 2 mps 687 mmHg 29%
    02:00 +14°C° 0 mm 2 mps 687 mmHg 29%
    03:00 +14°C° 0 mm 2 mps 687 mmHg 30%
    04:00 +15°C° 0 mm 2 mps 687 mmHg 31%
    05:00 +16°C° 0 mm 2 mps 688 mmHg 32%
    06:00 +17°C° 0 mm 2 mps 688 mmHg 33%
    07:00 +18°C° 0 mm 2 mps 689 mmHg 30%
    08:00 +20°C° 0 mm 2 mps 689 mmHg 28%
    09:00 +21°C° 0 mm 3 mps 690 mmHg 25%
    10:00 +22°C° 0 mm 3 mps 690 mmHg 25%
    11:00 +24°C° 0 mm 3 mps 690 mmHg 24%
    12:00 +25°C° 0 mm 3 mps 690 mmHg 23%
    13:00 +25°C° 0 mm 3 mps 690 mmHg 24%
    14:00 +25°C° 0 mm 3 mps 690 mmHg 24%
    15:00 +25°C° 0 mm 3 mps 690 mmHg 24%
    16:00 +24°C° 0 mm 2 mps 690 mmHg 28%
    17:00 +23°C° 0 mm 2 mps 690 mmHg 32%
    18:00 +21°C° 0 mm 2 mps 690 mmHg 35%
    19:00 +19°C° 0 mm 2 mps 690 mmHg 37%
    20:00 +17°C° 0 mm 2 mps 690 mmHg 39%
    21:00 +15°C° 0 mm 1 mps 690 mmHg 42%
    22:00 +15°C° 0 mm 1 mps 690 mmHg 43%
    23:00 +14°C° 0 mm 1 mps 690 mmHg 45%

    Day after tomorrow, 28 May, Tuesday

    Time Temperature Precipitation Wind Pressure Humidity
    00:00 +14°C° 0 mm 1 mps 690 mmHg 47%
    01:00 +14°C° 0 mm 1 mps 690 mmHg 48%
    02:00 +14°C° 0 mm 1 mps 690 mmHg 50%
    03:00 +14°C° 0 mm 1 mps 690 mmHg 51%
    04:00 +15°C° 0 mm 1 mps 691 mmHg 51%
    05:00 +16°C° 0 mm 1 mps 691 mmHg 51%
    06:00 +18°C° 0 mm 1 mps 691 mmHg 50%
    07:00 +19°C° 0.1 mm 1 mps 692 mmHg 47%
    08:00 +19°C° 0.1 mm 2 mps 692 mmHg 44%
    09:00 +21°C° 0.1 mm 2 mps 692 mmHg 41%
    10:00 +21°C° 0.1 mm 2 mps 692 mmHg 42%
    11:00 +22°C° 0.1 mm 3 mps 692 mmHg 42%
    12:00 +22°C° 0.1 mm 3 mps 692 mmHg 42%
    13:00 +22°C° 0.2 mm 3 mps 692 mmHg 43%
    14:00 +22°C° 0.2 mm 3 mps 692 mmHg 44%
    15:00 +24°C° 0.2 mm 3 mps 691 mmHg 46%
    16:00 +22°C° 0.4 mm 3 mps 691 mmHg 50%
    17:00 +21°C° 0.4 mm 2 mps 691 mmHg 54%
    18:00 +20°C° 0.4 mm 2 mps 691 mmHg 57%
    19:00 +19°C° 0.3 mm 2 mps 691 mmHg 62%
    20:00 +17°C° 0.3 mm 2 mps 691 mmHg 67%
    21:00 +15°C° 0.3 mm 1 mps 691 mmHg 71%
    22:00 +15°C° 0.1 mm 1 mps 691 mmHg 71%
    23:00 +15°C° 0.1 mm 1 mps 691 mmHg 70%

    29 May, Wednesday

    Time Temperature Precipitation Wind Pressure Humidity
    00:00 +15°C° 0.1 mm 1 mps 691 mmHg 69%
    01:00 +14°C° 0 mm 1 mps 691 mmHg 70%
    02:00 +14°C° 0 mm 1 mps 691 mmHg 70%
    03:00 +13°C° 0 mm 1 mps 690 mmHg 71%
    04:00 +15°C° 0 mm 1 mps 691 mmHg 67%
    05:00 +16°C° 0 mm 1 mps 691 mmHg 64%
    06:00 +16°C° 0 mm 0 mps 691 mmHg 60%
    07:00 +19°C° 0 mm 1 mps 691 mmHg 58%
    08:00 +19°C° 0 mm 2 mps 692 mmHg 56%
    09:00 +21°C° 0 mm 2 mps 692 mmHg 54%
    10:00 +21°C° 0.1 mm 2 mps 692 mmHg 54%
    11:00 +23°C° 0.1 mm 2 mps 691 mmHg 53%
    12:00 +23°C° 0.1 mm 2 mps 691 mmHg 52%
    13:00 +23°C° 0.7 mm 2 mps 691 mmHg 51%
    14:00 +24°C° 0.7 mm 2 mps 691 mmHg 51%
    15:00 +24°C° 0.7 mm 2 mps 691 mmHg 50%
    16:00 +24°C° 0.7 mm 2 mps 691 mmHg 53%
    17:00 +23°C° 0.7 mm 2 mps 690 mmHg 56%
    18:00 +22°C° 0.7 mm 1 mps 690 mmHg 60%
    19:00 +21°C° 0.6 mm 1 mps 690 mmHg 64%
    20:00 +19°C° 0.6 mm 1 mps 690 mmHg 69%
    21:00 +16°C° 0.6 mm 1 mps 690 mmHg 74%
    22:00 +16°C° 0.1 mm 1 mps 690 mmHg 74%
    23:00 +16°C° 0.1 mm 1 mps 690 mmHg 74%

    30 May, Thursday

    Time Temperature Precipitation Wind Pressure Humidity
    00:00 +15°C° 0.1 mm 1 mps 690 mmHg 73%
    01:00 +15°C° 0 mm 1 mps 690 mmHg 73%
    02:00 +14°C° 0 mm 1 mps 689 mmHg 73%
    03:00 +14°C° 0 mm 1 mps 689 mmHg 73%
    04:00 +15°C° 0 mm 1 mps 690 mmHg 69%
    05:00 +16°C° 0 mm 1 mps 690 mmHg 65%
    06:00 +17°C° 0 mm 0 mps 690 mmHg 62%
    07:00 +20°C° 0 mm 1 mps 690 mmHg 58%
    08:00 +21°C° 0 mm 1 mps 690 mmHg 55%
    09:00 +21°C° 0 mm 2 mps 691 mmHg 52%
    10:00 +23°C° 0.3 mm 2 mps 690 mmHg 52%
    11:00 +24°C° 0.3 mm 2 mps 690 mmHg 51%
    12:00 +24°C° 0.3 mm 2 mps 690 mmHg 51%
    13:00 +24°C° 1.1 mm 2 mps 690 mmHg 51%
    14:00 +24°C° 1.1 mm 2 mps 689 mmHg 51%
    15:00 +25°C° 1.1 mm 2 mps 689 mmHg 51%
    16:00 +24°C° 0.9 mm 1 mps 689 mmHg 53%
    17:00 +23°C° 0.9 mm 1 mps 689 mmHg 56%
    18:00 +23°C° 0.9 mm 1 mps 689 mmHg 58%
    19:00 +21°C° 0.7 mm 1 mps 689 mmHg 63%
    20:00 +19°C° 0.7 mm 2 mps 689 mmHg 67%
    21:00 +17°C° 0.7 mm 2 mps 689 mmHg 71%
    22:00 +16°C° 0.3 mm 2 mps 689 mmHg 72%
    23:00 +16°C° 0.3 mm 2 mps 689 mmHg 72%

    31 May, Friday

    Time Temperature Precipitation Wind Pressure Humidity
    00:00 +15°C° 0.3 mm 1 mps 689 mmHg 72%
    01:00 +15°C° 0 mm 1 mps 689 mmHg 71%
    02:00 +15°C° 0 mm 2 mps 688 mmHg 70%
    03:00 +14°C° 0 mm 2 mps 688 mmHg 68%
    04:00 +15°C° 0 mm 1 mps 688 mmHg 64%
    05:00 +18°C° 0 mm 1 mps 689 mmHg 60%
    06:00 +19°C° 0 mm 1 mps 689 mmHg 56%
    07:00 +20°C° 0 mm 1 mps 689 mmHg 53%
    08:00 +20°C° 0 mm 2 mps 689 mmHg 51%
    09:00 +23°C° 0 mm 2 mps 689 mmHg 48%
    10:00 +23°C° 0.1 mm 2 mps 689 mmHg 47%
    11:00 +24°C° 0.1 mm 2 mps 689 mmHg 46%
    12:00 +25°C° 0.1 mm 3 mps 688 mmHg 45%
    13:00 +25°C° 0.2 mm 2 mps 688 mmHg 45%
    14:00 +25°C° 0.2 mm 2 mps 688 mmHg 45%
    15:00 +25°C° 0.2 mm 2 mps 687 mmHg 45%
    16:00 +25°C° 0.3 mm 2 mps 687 mmHg 48%
    17:00 +24°C° 0.3 mm 2 mps 687 mmHg 50%
    18:00 +24°C° 0.3 mm 1 mps 687 mmHg 52%
    19:00 +21°C° 0.2 mm 2 mps 687 mmHg 56%
    20:00 +19°C° 0.2 mm 2 mps 687 mmHg 60%
    21:00 +17°C° 0.2 mm 2 mps 687 mmHg 64%
    22:00 +17°C° 0 mm 2 mps 687 mmHg 65%
    23:00 +16°C° 0 mm 2 mps 687 mmHg 67%
    Show more